Flag for China Weather past 2 weeks in Hohhot, Inner Mongolia, China

Now
45 °F

Clear.


Feels Like: 43 °F
Forecast: 36 / 66 °F
Wind: 3 mph from Northeast

Location: Hohhot Airport

Current Time: Oct 24, 2014 at 11:53:11 PM

Latest Report: Oct 24, 2014 at 11:00 PM


Visibility: 4 mi

Pressure: 29.92 "Hg

Humidity: 66%

Dew point: 34 °F

Location of HohhotLocation

Historic Weather in Hohhot — Graph

°F

Hohhot temperature yesterday

Maximum temperature yesterday: 64 °F (at 3:00 PM)
Minimum temperature yesterday: 37 °F (at 6:00 AM)
Average temperature yesterday: 49 °F

Past Weeks' High & Low Weather Summary

 TemperatureHumidityPressure
High70 °F (Oct 10, 2:00 PM)100% (Oct 11, 6:00 AM)30.60 "Hg (Oct 11, 6:00 AM)
Low27 °F (Oct 13, 6:00 AM)21% (Oct 15, 3:00 PM)29.86 "Hg (Oct 24, 2:00 PM)
Average48 °F61%30.15 "Hg
* Reported Oct 9 10:00 PM — Oct 24 10:00 PM, Hohhot, Weather by CustomWeather, © 2014

Note: Actual official high and low records may vary slightly from our data, if they occured in-between our weather recording intervals... More about our weather records

Advertising

Hohhot weather history for previous 24 hours

 ConditionsComfort  
Time TempWeatherWind HumidityBarometerVisibility
10:00 PM
Oct 24
45 °FClear.3 mph71%29.92 "Hg3 mi
9:00 PM50 °FClear.3 mph58%29.92 "Hg3 mi
8:00 PM50 °FClear.3 mph58%29.89 "Hg3 mi
7:00 PM54 °FClear.6 mph51%29.89 "Hg3 mi
6:00 PM61 °FClear.3 mph39%29.86 "Hg2 mi
5:00 PM64 °FClear.3 mph34%29.86 "Hg3 mi
4:00 PM66 °FClear.10 mph30%29.86 "Hg4 mi
3:00 PM66 °FClear.10 mph30%29.86 "Hg4 mi
2:00 PM64 °FClear.6 mph32%29.86 "Hg5 mi
1:00 PM63 °FClear.3 mph37%29.89 "Hg5 mi
12:00 PM59 °FClear.1 mph39%29.92 "Hg5 mi
11:00 AM55 °FPassing clouds.6 mph41%29.95 "HgN/A
10:00 AM55 °FPassing clouds.3 mph44%29.95 "HgN/A
9:00 AM48 °FPassing clouds.3 mph62%29.95 "HgN/A
8:00 AM39 °FClear.3 mph81%29.95 "Hg4 mi
7:00 AM36 °FClear.3 mph81%29.92 "Hg4 mi
6:00 AM37 °FClear.3 mph81%29.92 "Hg4 mi
5:00 AM37 °FClear.6 mph81%29.92 "Hg4 mi
4:00 AM37 °FClear.3 mph75%29.92 "Hg4 mi
3:00 AM37 °FClear.3 mph81%29.92 "Hg4 mi
2:00 AM41 °FClear.3 mph70%29.92 "Hg4 mi
1:00 AM41 °FClear.3 mph70%29.92 "Hg5 mi
12:00 AM41 °FClear.3 mph70%29.92 "Hg5 mi
11:00 PM
Oct 23
45 °FClear.3 mph61%29.92 "Hg5 mi
Weather by CustomWeather, © 2014

See weather overviewHow to use our weather pages